[[{"header":{"parameterUnit":"m.s-1","parameterCategory":1,"la1":30.2991,"la2":30.254,"lo1":-89.0895,"lo2":-89.0444,"dy":0.0017,"dx":0.0017,"nx":28,"ny":28,"refTime":"2025-04-28T09:00:00:Z","depth":0,"parameterNumber":2,"parameterNumberName":"U-component_of_WINDS"},"data":[0,0,0,0,0,0,0,0,0,0,0,0,0,0,0,0,0,0,0,0,0,0,0,0,0,0,0,0,0,0,0,0,0,0,0,0,0,0,0,0,0,0,0,0,0,0,0,0,0,0,0,0,0,0,0,0,0,0,-1.2963,-1.2963,0,-1.3009,-1.301,-1.301,-1.3026,-1.3026,-1.3025,-1.3025,-1.3073,-1.3075,-1.3076,0,0,0,0,0,0,0,0,0,0,0,0,0,-1.2889,-1.289,-1.2963,-1.2963,-1.2964,-1.3009,-1.301,-1.301,-1.3026,-1.3026,-1.3025,-1.3025,-1.3073,-1.3075,-1.3076,0,0,0,0,0,0,0,0,0,0,0,0,0,-1.2926,-1.289,-1.2963,-1.2977,-1.2979,-1.3009,-1.301,-1.301,-1.3026,-1.3026,-1.3025,-1.3025,-1.3072,-1.3074,-1.3077,-1.3096,0,0,-1.3083,-1.3084,0,0,0,0,0,0,0,0,-1.2924,-1.2929,-1.2974,-1.2976,-1.2978,-1.3011,-1.3001,-1.3039,-1.3026,-1.3008,-1.3025,-1.3025,-1.3053,-1.3057,-1.3066,-1.3098,-1.31,-1.3084,-1.3085,-1.3086,-1.3086,0,0,0,0,0,0,0,-1.2922,-1.2927,-1.2981,-1.2975,-1.2977,-1.2982,-1.2987,-1.3009,-1.3032,-1.301,-1.3011,-1.3016,-1.3054,-1.3064,-1.3067,-1.3101,-1.3083,-1.3085,-1.3087,-1.3088,-1.3152,-1.3152,0,0,0,0,0,0,-1.2917,-1.2925,-1.298,-1.2982,-1.295,-1.2983,-1.2989,-1.3001,-1.3031,-1.3036,-1.3016,-1.3017,-1.306,-1.3065,-1.3069,-1.3094,-1.3086,-1.3088,-1.3089,-1.3151,-1.3152,-1.3152,0,0,0,0,0,0,-1.2915,-1.2921,-1.2978,-1.2954,-1.2962,-1.2985,-1.2998,-1.3002,-1.3012,-1.3036,-1.3041,-1.3022,-1.306,-1.3066,-1.3089,-1.3096,-1.3089,-1.3091,-1.3151,-1.3151,-1.3152,-1.3143,0,0,0,0,0,0,-1.2913,-1.2921,-1.2928,-1.2954,-1.2963,-1.2997,-1.2999,-1.3003,-1.3016,-1.3017,-1.3043,-1.3047,-1.3061,-1.3086,-1.3091,-1.3099,-1.3093,-1.315,-1.3151,-1.3152,-1.3143,-1.3143,-1.3144,0,0,0,0,0,-1.291,-1.2924,-1.2928,-1.2935,-1.2972,-1.2997,-1.3002,-1.3017,-1.3016,-1.3024,-1.304,-1.3046,-1.3094,-1.3088,-1.3094,-1.3102,-1.315,-1.3151,-1.3152,-1.3143,-1.3143,-1.3144,0,0,0,0,0,0,-1.2898,-1.2927,-1.2933,-1.2955,-1.2973,-1.3,-1.301,-1.3017,-1.3036,-1.3036,-1.3054,-1.306,-1.3082,-1.3094,-1.3087,-1.3123,-1.3122,-1.3125,-1.3114,-1.3114,-1.3115,-1.3111,-1.3094,0,0,0,0,0,-1.2898,-1.2915,-1.294,-1.2957,-1.2966,-1.2986,-1.2998,-1.3008,-1.3027,-1.3035,-1.3053,-1.3072,-1.3091,-1.3104,-1.3123,-1.3145,-1.3151,-1.3154,-1.3154,-1.3154,-1.3156,-1.3169,-1.317,-1.3155,-1.3155,-1.3155,0,0,-1.2898,-1.2916,-1.2926,-1.2955,-1.2971,-1.2988,-1.2993,-1.3011,-1.3025,-1.3038,-1.3061,-1.3074,-1.3097,-1.312,-1.3131,-1.3131,-1.3162,-1.3156,-1.3155,-1.3157,-1.317,-1.3171,-1.3173,-1.3156,-1.3155,-1.3155,0,0,-1.2907,-1.2922,-1.2938,-1.2954,-1.2977,-1.299,-1.2994,-1.3019,-1.3029,-1.3052,-1.3062,-1.3079,-1.3112,-1.3127,-1.314,-1.3155,-1.3162,-1.3161,-1.3163,-1.3175,-1.3176,-1.3177,-1.3183,-1.3185,-1.3162,-1.3162,-1.3162,0,-1.2904,-1.293,-1.2946,-1.2964,-1.2977,-1.299,-1.3007,-1.3021,-1.3049,-1.3058,-1.3058,-1.31,-1.3116,-1.3142,-1.3146,-1.3156,-1.3161,-1.3158,-1.3175,-1.3176,-1.3177,-1.3183,-1.3185,-1.3162,-1.3162,-1.3162,-1.3162,0,-1.2926,-1.2944,-1.2955,-1.2981,-1.2996,-1.3013,-1.3031,-1.3044,-1.3053,-1.3066,-1.309,-1.311,-1.3133,-1.314,-1.3149,-1.3168,-1.3168,-1.3171,-1.3171,-1.3178,-1.3184,-1.3186,-1.3162,-1.3162,-1.3162,-1.3162,0,0,-1.2928,-1.2963,-1.2967,-1.2979,-1.3006,-1.302,-1.3038,-1.3061,-1.3072,-1.3091,-1.3107,-1.3134,-1.3138,-1.3151,-1.3162,-1.3173,-1.3184,-1.3175,-1.3176,-1.3176,-1.3207,-1.3204,-1.3206,-1.3189,-1.319,-1.319,-1.3205,0,-1.294,-1.2973,-1.2987,-1.3013,-1.3031,-1.3043,-1.3059,-1.3077,-1.309,-1.3107,-1.3122,-1.3142,-1.3144,-1.3153,-1.3164,-1.318,-1.319,-1.318,-1.3204,-1.3205,-1.3198,-1.3209,-1.3206,-1.3219,-1.3207,-1.3207,-1.3208,0,-1.2959,-1.2978,-1.3005,-1.303,-1.3038,-1.3052,-1.3074,-1.309,-1.3111,-1.312,-1.3135,-1.3146,-1.3166,-1.3164,-1.3192,-1.3184,-1.3195,-1.3205,-1.3206,-1.3208,-1.3206,-1.3211,-1.3223,-1.3225,-1.3211,-1.3211,-1.321,0,-1.2958,-1.299,-1.3011,-1.3021,-1.305,-1.3059,-1.3072,-1.3093,-1.3106,-1.3125,-1.3134,-1.3156,-1.3167,-1.3184,-1.32,-1.3198,-1.3226,-1.3227,-1.3234,-1.3234,-1.324,-1.3239,-1.3253,-1.3247,-1.3247,-1.3247,-1.3247,0,-1.297,-1.2986,-1.301,-1.3023,-1.3042,-1.3059,-1.3077,-1.3091,-1.3109,-1.3125,-1.3138,-1.3152,-1.3173,-1.319,-1.3203,-1.3224,-1.323,-1.3237,-1.3241,-1.3236,-1.3235,-1.3243,-1.3243,-1.3248,-1.3247,-1.3247,-1.3247,0,-1.2971,-1.2988,-1.3012,-1.3037,-1.3044,-1.3057,-1.3079,-1.3092,-1.3106,-1.3126,-1.3132,-1.3153,-1.3175,-1.3192,-1.322,-1.3229,-1.3251,-1.3255,-1.3243,-1.3245,-1.3252,-1.3251,-1.3272,-1.3275,-1.3267,-1.3267,-1.3267,0,-1.2978,-1.2991,-1.3018,-1.3029,-1.3041,-1.3059,-1.3072,-1.309,-1.3103,-1.3128,-1.3138,-1.316,-1.3178,-1.3212,-1.323,-1.3252,-1.3256,-1.3262,-1.326,-1.3255,-1.3256,-1.3255,-1.3257,-1.3262,-1.3262,-1.3262,-1.3262,0,-1.2987,-1.2995,-1.3013,-1.3034,-1.3049,-1.3067,-1.3085,-1.3094,-1.3114,-1.3129,-1.315,-1.3165,-1.3193,-1.3215,-1.3238,-1.3252,-1.3261,-1.3263,-1.3266,-1.3261,-1.3254,-1.3258,-1.3244,-1.3262,-1.3262,-1.3262,-1.3262,-1.3262,-1.2992,-1.3004,-1.3024,-1.3044,-1.3059,-1.3076,-1.3089,-1.3105,-1.3123,-1.3147,-1.3157,-1.3179,-1.32,-1.3232,-1.3246,-1.3264,-1.3265,-1.3269,-1.327,-1.3271,-1.327,-1.3251,-1.3268,-1.3268,-1.3268,-1.3268,-1.3268,0,-1.3002,-1.3016,-1.3034,-1.3058,-1.3074,-1.3081,-1.3101,-1.3114,-1.3133,-1.3151,-1.3169,-1.3194,-1.3216,-1.3236,-1.3258,-1.3269,-1.3273,-1.3274,-1.3273,-1.3276,-1.3268,-1.3263,-1.327,-1.327,-1.327,-1.327,-1.327,-1.327,-1.3009,-1.303,-1.304,-1.3068,-1.3082,-1.3104,-1.3115,-1.313,-1.3145,-1.3172,-1.319,-1.3203,-1.3222,-1.3246,-1.3266,-1.3272,-1.3279,-1.3279,-1.3285,-1.3277,-1.3277,-1.3276,-1.3272,-1.328,-1.328,-1.3292,-1.3292,-1.3292]},{"header":{"parameterUnit":"m.s-1","parameterCategory":1,"la1":30.2991,"la2":30.254,"lo1":-89.0895,"lo2":-89.0444,"dy":0.0017,"dx":0.0017,"nx":28,"ny":28,"refTime":"2025-04-28T09:00:00:Z","depth":0,"parameterNumber":3,"parameterNumberName":"V-component_of_WINDS"},"data":[0,0,0,0,0,0,0,0,0,0,0,0,0,0,0,0,0,0,0,0,0,0,0,0,0,0,0,0,0,0,0,0,0,0,0,0,0,0,0,0,0,0,0,0,0,0,0,0,0,0,0,0,0,0,0,0,0,0,3.8671,3.8671,0,3.8677,3.8677,3.8677,3.8621,3.8619,3.8618,3.8616,3.8621,3.8623,3.8624,0,0,0,0,0,0,0,0,0,0,0,0,0,3.861,3.8611,3.8671,3.8671,3.8672,3.8677,3.8677,3.8677,3.8621,3.8619,3.8617,3.8616,3.8621,3.8623,3.8625,0,0,0,0,0,0,0,0,0,0,0,0,0,3.8628,3.8612,3.8671,3.8644,3.8642,3.8677,3.8677,3.8678,3.8622,3.8619,3.8617,3.8615,3.862,3.8622,3.8625,3.8686,0,0,3.8632,3.8633,0,0,0,0,0,0,0,0,3.8627,3.8631,3.8648,3.8646,3.8644,3.8646,3.8658,3.868,3.8622,3.8629,3.8616,3.8614,3.8631,3.8633,3.8639,3.8687,3.8687,3.8632,3.8634,3.8635,3.8635,0,0,0,0,0,0,0,3.8626,3.863,3.8674,3.8648,3.8646,3.8631,3.8631,3.8662,3.8643,3.8628,3.8624,3.8626,3.863,3.8637,3.8639,3.8687,3.8632,3.8634,3.8636,3.8637,3.8785,3.8787,0,0,0,0,0,0,3.8629,3.8629,3.8673,3.8674,3.863,3.8634,3.8634,3.8648,3.8643,3.864,3.8628,3.8623,3.8634,3.8636,3.8639,3.871,3.8635,3.8637,3.8638,3.8782,3.8785,3.8788,0,0,0,0,0,0,3.8628,3.8633,3.8673,3.8651,3.8655,3.8638,3.8653,3.8649,3.8656,3.8642,3.8639,3.8639,3.8632,3.8635,3.8675,3.8709,3.8638,3.864,3.8779,3.8783,3.8787,3.8853,0,0,0,0,0,0,3.8626,3.8633,3.8657,3.8652,3.8656,3.871,3.8655,3.8651,3.866,3.8654,3.8651,3.8649,3.863,3.8672,3.8677,3.8711,3.8642,3.8776,3.8781,3.8786,3.8848,3.8859,3.8868,0,0,0,0,0,3.8624,3.8675,3.8658,3.8664,3.8685,3.8712,3.8715,3.8693,3.8663,3.8686,3.8678,3.8649,3.8705,3.8676,3.8682,3.8717,3.8774,3.878,3.8785,3.8843,3.8856,3.8868,0,0,0,0,0,0,3.8684,3.8674,3.8655,3.8706,3.871,3.8702,3.8731,3.8708,3.872,3.8714,3.8686,3.8686,3.873,3.8728,3.8696,3.8776,3.8734,3.8741,3.8776,3.8789,3.8799,3.8798,3.8644,0,0,0,0,0,3.8703,3.8727,3.8716,3.8762,3.8765,3.8748,3.8759,3.8742,3.8745,3.8747,3.8741,3.8745,3.8763,3.8776,3.8792,3.8847,3.8846,3.8874,3.8885,3.8893,3.8899,3.8928,3.894,3.8807,3.8807,3.8806,0,0,3.8743,3.874,3.8756,3.8774,3.8775,3.8799,3.875,3.8778,3.8795,3.8751,3.8788,3.8784,3.8786,3.8834,3.8855,3.8833,3.8936,3.89,3.8907,3.8908,3.8935,3.8947,3.8959,3.881,3.881,3.8809,0,0,3.8827,3.8828,3.8866,3.8869,3.8872,3.886,3.8869,3.8865,3.8861,3.8898,3.8865,3.8885,3.8918,3.8921,3.8927,3.9013,3.8987,3.9019,3.9072,3.91,3.911,3.9119,3.915,3.9161,3.9025,3.9026,3.9026,0,3.8876,3.8912,3.8888,3.8918,3.8927,3.8888,3.8926,3.893,3.8938,3.8944,3.892,3.896,3.8959,3.9007,3.9028,3.9034,3.9044,3.9019,3.9111,3.912,3.9128,3.9156,3.9168,3.903,3.9029,3.9029,3.9028,0,3.8971,3.8996,3.9026,3.9036,3.9047,3.9081,3.9063,3.9078,3.906,3.905,3.9088,3.9086,3.9101,3.9111,3.9094,3.9157,3.9143,3.9116,3.9072,3.9145,3.9171,3.9182,3.9035,3.9034,3.9033,3.9032,0,0,3.9093,3.9089,3.91,3.9104,3.9105,3.9123,3.9156,3.917,3.9183,3.9191,3.9216,3.9245,3.9219,3.9226,3.9209,3.9234,3.9302,3.9203,3.9202,3.9221,3.937,3.939,3.9403,3.9285,3.9287,3.9288,3.9369,0,3.9174,3.9229,3.9209,3.9265,3.9288,3.9252,3.9279,3.9283,3.9275,3.9293,3.9284,3.9305,3.927,3.9274,3.9297,3.9289,3.9331,3.9282,3.9308,3.9309,3.9307,3.9417,3.9438,3.9515,3.9379,3.9381,3.9382,0,3.9277,3.9288,3.9347,3.9343,3.9352,3.9378,3.939,3.9407,3.941,3.9403,3.9411,3.9388,3.9419,3.9377,3.9419,3.9386,3.9396,3.9393,3.9395,3.9396,3.9349,3.942,3.9539,3.955,3.9398,3.9397,3.9396,0,3.9359,3.9389,3.9428,3.9432,3.9429,3.9448,3.9448,3.9448,3.9459,3.9469,3.9475,3.949,3.9497,3.9508,3.949,3.9461,3.9534,3.9491,3.9529,3.9529,3.9545,3.9544,3.9666,3.9552,3.9552,3.9552,3.9552,0,3.9452,3.9489,3.9464,3.9488,3.9528,3.9505,3.9545,3.9541,3.9542,3.9564,3.9534,3.9555,3.953,3.9549,3.9535,3.9571,3.9575,3.9569,3.9565,3.9572,3.9572,3.9577,3.9571,3.9555,3.9554,3.9554,3.9553,0,3.955,3.9535,3.9575,3.9569,3.9569,3.9599,3.9593,3.9615,3.9606,3.9634,3.9639,3.9624,3.9644,3.9628,3.9647,3.9638,3.9686,3.9675,3.9685,3.9682,3.972,3.9717,3.9849,3.9865,3.9742,3.9743,3.9744,0,3.961,3.9637,3.9635,3.9648,3.9649,3.967,3.9681,3.9659,3.9671,3.9676,3.9697,3.9715,3.9728,3.9763,3.9753,3.9768,3.9756,3.9802,3.9758,3.9764,3.9756,3.9755,3.9757,3.981,3.9812,3.9813,3.9814,0,3.9717,3.9709,3.9725,3.9739,3.9753,3.9763,3.977,3.9782,3.976,3.9775,3.9796,3.9806,3.9826,3.9844,3.9856,3.9855,3.9831,3.9828,3.9837,3.9844,3.9849,3.9846,3.9708,3.9825,3.9824,3.9823,3.9822,3.9822,3.9798,3.982,3.9822,3.9841,3.9845,3.9853,3.9872,3.9866,3.9883,3.9898,3.9884,3.9909,3.9911,3.9924,3.9927,3.9945,3.9927,3.994,3.9944,3.9947,3.9953,3.9847,3.9948,3.9947,3.9947,3.9947,3.9947,0,3.9903,3.9903,3.9921,3.9932,3.9947,3.9924,3.9931,3.9945,3.9967,3.9971,3.9985,4.0009,4.0026,4.0019,4.0034,4.005,4.0039,4.0055,4.0053,4.0053,3.9969,3.9959,4.0063,4.0063,4.0063,4.0063,4.0063,4.0063,3.996,3.9997,3.9989,4.0027,4.0026,4.005,4.0056,4.0063,4.0066,4.0094,4.0109,4.0104,4.0103,4.0118,4.0133,4.013,4.0137,4.0156,4.015,4.0071,4.0059,4.0048,4.0039,4.0158,4.0158,4.0232,4.0233,4.0233]}]]